Location: Huntsville
(41.2590°N, 111.7678°W)
Time: 11:52:48
(UTC+00:00)

Envisat - Pass Details

Date: 07 December 2021
Orbit: 764 x 766 km, 98.2° (Epoch: 28 January)

Event Time Altitude Azimuth Distance (km) Brightness Sun altitude
Rises 12:02:05 0° 18° (NNE) 3,242 6.4 -28.8°
Reaches altitude 10° 12:04:29 10° 24° (NNE) 2,311 5.7 -28.3°
Maximum altitude 12:09:25 49° 99° (E) 984 3.8 -27.4°
Drops below altitude 10° 12:14:18 10° 174° (S) 2,293 5.6 -26.5°
Sets 12:16:40 0° 180° (S) 3,215 6.3 -26.1°
